Lid_Strength_Index
-0 -0 -1 -1 -2 -2 -2 -1 -1 -1 -1 -1 -1 -1 -1 -1 -1 0 3 1 0 -1 -1 1 1 2 3 4 4 4 11 12 11 10 8 6 7 6 6 6 6 5 5 4 2
-1 -0 -1 -1 -2 -2 -2 -2 -2 -1 -1 -1 -1 -1 -1 -2 1 3 -1 -1 -1 -1 1 3 4 3 5 5 5 7 11 10 7 7 8 7 7 6 7 7 7 6 4 3 3
-1 -1 -1 -1 -1 -2 -2 -2 -2 -1 -1 -1 -1 -1 -2 -1 4 4 -1 -1 -1 -1 0 1 2 4 6 5 6 7 10 7 7 7 6 6 7 5 7 8 7 7 6 4 4
-0 -1 -1 -1 -1 -1 -2 -2 -2 -1 -1 -1 -1 -1 -1 1 10 2 -1 -1 -1 -1 1 3 4 6 7 8 6 9 7 7 7 6 7 7 6 7 7 9 7 4 4 4 4
-0 -1 -1 -1 -1 -1 -1 -2 -2 -2 -1 -1 -1 -1 1 5 5 0 -2 -2 -0 1 3 4 5 6 8 7 6 8 7 7 7 7 7 7 7 7 7 8 5 4 4 4 4
0 -0 -1 -1 -1 -1 -1 -1 -2 -1 -1 -1 -1 -1 3 8 1 0 -0 0 1 2 3 3 4 4 6 6 7 7 7 7 8 7 7 8 8 9 8 6 5 5 5 4 4
1 0 -0 -1 -1 -1 -1 -1 -1 -1 -1 -1 -1 0 4 5 -0 0 -0 1 0 1 4 2 2 5 5 7 5 6 9 8 9 8 8 8 10 10 8 6 6 5 5 5 4
1 0 -0 -1 -1 -1 -1 -1 -2 -2 -1 -1 -1 1 6 0 1 1 0 1 0 0 1 1 2 4 6 5 6 8 9 12 9 8 8 8 11 9 8 8 7 6 5 5 4
1 1 0 -0 -1 -1 -1 -1 -1 -2 -1 -1 1 3 6 0 3 2 1 2 2 1 1 1 2 6 6 9 11 10 13 12 11 7 8 10 11 10 8 8 7 7 6 5 5
1 1 0 0 -0 -1 -1 -1 -1 -1 -0 -0 1 5 3 5 3 3 2 1 3 3 4 4 6 9 9 10 15 13 12 11 12 9 9 11 11 11 10 9 8 7 7 6 5
1 1 0 0 0 -0 0 1 4 5 3 5 5 5 4 2 2 3 2 3 3 5 9 7 11 13 10 9 9 10 11 12 10 8 10 10 9 11 11 11 10 8 7 6 6
1 1 1 1 1 0 1 3 3 3 7 3 3 3 3 2 5 3 2 5 6 10 8 9 12 9 7 7 8 10 11 11 10 8 10 10 10 9 10 11 10 9 7 7 6
1 1 1 1 1 2 2 3 0 1 7 5 3 4 4 3 5 5 3 4 7 9 9 11 9 7 8 9 10 10 11 11 11 10 11 12 12 10 9 10 11 10 9 7 6
2 2 2 1 3 2 3 1 1 1 11 8 6 4 3 3 6 2 2 4 7 9 9 10 7 8 9 10 9 12 9 9 10 12 16 11 17 12 10 10 11 11 11 10 8
2 3 3 3 3 3 3 1 2 4 19 7 6 1 3 6 5 5 2 5 8 8 9 11 10 10 10 10 8 10 8 10 10 12 13 14 17 14 11 12 11 12 12 11 10
2 3 2 3 3 3 2 2 3 13 19 10 6 6 7 6 6 5 5 4 5 8 8 9 7 8 9 8 8 8 10 10 11 13 18 14 15 15 13 12 11 11 10 10 10
2 2 3 3 5 3 3 4 13 17 9 10 9 7 8 8 7 7 8 9 11 15 15 10 10 8 8 10 9 9 13 19 20 20 20 14 16 13 12 10 10 11 10 10 9
2 2 2 3 2 3 5 9 16 12 11 8 8 8 10 8 8 8 9 11 9 10 13 15 17 10 8 10 12 12 13 18 21 21 18 15 18 14 11 10 9 9 10 9 10
3 2 3 3 1 2 6 14 14 12 9 10 9 11 10 9 10 9 10 10 9 9 13 13 15 9 8 8 10 12 15 13 15 15 17 16 14 12 11 11 10 10 9 10 9
2 3 3 3 2 4 8 11 11 9 10 9 12 11 12 11 11 11 10 9 9 9 9 10 14 10 9 8 9 12 11 15 15 20 20 17 16 16 14 12 10 10 10 9 9
3 5 3 3 4 7 12 11 9 9 9 11 12 11 11 12 11 12 12 10 9 10 10 11 12 14 10 12 12 13 13 13 14 15 18 20 17 13 13 11 11 10 10 10 10
3 8 4 4 8 9 11 10 10 9 9 10 11 11 12 11 12 12 12 10 9 9 12 12 12 15 13 11 10 11 12 12 16 16 16 18 18 12 12 11 10 10 10 10 10
6 5 4 5 10 11 11 10 10 11 11 11 12 11 12 13 14 12 11 8 9 10 12 11 13 17 17 14 12 13 12 12 13 14 17 18 17 12 12 12 10 11 11 10 10
6 9 6 6 8 10 11 10 10 10 11 11 12 12 13 13 13 14 13 10 10 10 8 10 14 15 18 17 14 15 13 12 14 17 17 16 16 14 12 11 11 11 11 11 11
5 7 7 9 8 9 9 10 10 11 10 11 12 13 13 16 14 15 14 12 11 9 12 12 15 16 15 14 14 14 14 13 15 14 16 15 15 15 13 12 11 11 10 11 11
6 8 7 9 8 9 9 9 10 10 11 11 13 11 13 14 13 15 13 14 15 13 14 13 16 16 17 15 15 17 15 14 13 13 14 14 14 13 13 11 11 11 11 11 11
5 6 7 8 9 10 10 9 9 9 9 9 11 12 12 11 11 11 12 12 13 15 15 15 16 17 18 15 15 16 14 15 15 14 13 16 14 12 14 12 11 11 11 11 11